When you browse on this site, cookies collect data to enhance your experience and personalize the content and advertising you see.
Visit our Privacy Policy to learn more. By continuing to use the site, you agree to this use of cookies and data.

Stündliche Wetter Zastavche

Heute, 5 August, Mittwoch

Zeit Temperatur Niederschläge Wind Luftdruck Luftfeuchtigkeit
00:00 +20°C° 0.3 mm 1 m/S 734 mmHg 82%
01:00 +19°C° 0.3 mm 1 m/S 735 mmHg 82%
02:00 +19°C° 0.3 mm 1 m/S 735 mmHg 82%
03:00 +18°C° 0.1 mm 1 m/S 735 mmHg 83%
04:00 +18°C° 0.1 mm 1 m/S 735 mmHg 84%
05:00 +18°C° 0.1 mm 1 m/S 735 mmHg 85%
06:00 +19°C° 0 mm 1 m/S 736 mmHg 83%
07:00 +19°C° 0 mm 2 m/S 736 mmHg 81%
08:00 +20°C° 0 mm 2 m/S 736 mmHg 80%
09:00 +21°C° 0 mm 2 m/S 737 mmHg 76%
10:00 +23°C° 0 mm 2 m/S 737 mmHg 73%
11:00 +24°C° 0 mm 2 m/S 738 mmHg 69%
12:00 +25°C° 0 mm 2 m/S 738 mmHg 66%
13:00 +26°C° 0 mm 2 m/S 738 mmHg 63%
14:00 +27°C° 0 mm 2 m/S 738 mmHg 60%
15:00 +27°C° 0 mm 2 m/S 738 mmHg 62%
16:00 +27°C° 0 mm 3 m/S 738 mmHg 64%
17:00 +27°C° 0 mm 3 m/S 738 mmHg 65%
18:00 +25°C° 0 mm 2 m/S 738 mmHg 72%
19:00 +23°C° 0 mm 2 m/S 738 mmHg 79%
20:00 +22°C° 0 mm 1 m/S 738 mmHg 86%
21:00 +21°C° 0 mm 1 m/S 739 mmHg 86%
22:00 +21°C° 0 mm 1 m/S 739 mmHg 86%
23:00 +20°C° 0 mm 1 m/S 739 mmHg 86%

Morgen, 6 August, Donnerstag

Zeit Temperatur Niederschläge Wind Luftdruck Luftfeuchtigkeit
00:00 +20°C° 0 mm 1 m/S 739 mmHg 85%
01:00 +19°C° 0 mm 1 m/S 739 mmHg 84%
02:00 +19°C° 0 mm 1 m/S 739 mmHg 83%
03:00 +18°C° 0 mm 1 m/S 740 mmHg 84%
04:00 +18°C° 0 mm 1 m/S 740 mmHg 85%
05:00 +16°C° 0 mm 1 m/S 740 mmHg 86%
06:00 +19°C° 0 mm 1 m/S 740 mmHg 82%
07:00 +19°C° 0 mm 2 m/S 740 mmHg 78%
08:00 +21°C° 0 mm 2 m/S 741 mmHg 74%
09:00 +24°C° 0 mm 2 m/S 741 mmHg 69%
10:00 +25°C° 0 mm 2 m/S 741 mmHg 63%
11:00 +27°C° 0 mm 2 m/S 742 mmHg 58%
12:00 +28°C° 0 mm 3 m/S 741 mmHg 55%
13:00 +29°C° 0 mm 3 m/S 741 mmHg 53%
14:00 +29°C° 0 mm 3 m/S 741 mmHg 51%
15:00 +29°C° 0 mm 3 m/S 741 mmHg 55%
16:00 +29°C° 0 mm 3 m/S 741 mmHg 59%
17:00 +28°C° 0 mm 3 m/S 741 mmHg 63%
18:00 +26°C° 0 mm 3 m/S 741 mmHg 66%
19:00 +25°C° 0 mm 3 m/S 741 mmHg 70%
20:00 +22°C° 0 mm 3 m/S 741 mmHg 73%
21:00 +21°C° 0 mm 3 m/S 742 mmHg 74%
22:00 +21°C° 0 mm 2 m/S 742 mmHg 75%
23:00 +20°C° 0 mm 2 m/S 742 mmHg 75%

übermorgen, 7 August, Freitag

Zeit Temperatur Niederschläge Wind Luftdruck Luftfeuchtigkeit
00:00 +20°C° 0 mm 2 m/S 742 mmHg 77%
01:00 +19°C° 0 mm 2 m/S 742 mmHg 79%
02:00 +20°C° 0 mm 1 m/S 742 mmHg 81%
03:00 +19°C° 0 mm 1 m/S 742 mmHg 83%
04:00 +19°C° 0 mm 1 m/S 742 mmHg 84%
05:00 +19°C° 0 mm 1 m/S 742 mmHg 86%
06:00 +19°C° 0 mm 2 m/S 743 mmHg 82%
07:00 +21°C° 0 mm 2 m/S 743 mmHg 78%
08:00 +23°C° 0 mm 2 m/S 743 mmHg 75%
09:00 +24°C° 0 mm 2 m/S 743 mmHg 70%
10:00 +26°C° 0 mm 3 m/S 743 mmHg 65%
11:00 +27°C° 0 mm 3 m/S 743 mmHg 60%
12:00 +28°C° 0 mm 3 m/S 743 mmHg 58%
13:00 +28°C° 0 mm 3 m/S 743 mmHg 57%
14:00 +28°C° 0 mm 3 m/S 742 mmHg 56%
15:00 +28°C° 0 mm 3 m/S 742 mmHg 57%
16:00 +28°C° 0 mm 3 m/S 742 mmHg 58%
17:00 +28°C° 0 mm 2 m/S 742 mmHg 59%
18:00 +27°C° 0 mm 3 m/S 742 mmHg 67%
19:00 +25°C° 0 mm 3 m/S 742 mmHg 74%
20:00 +22°C° 0 mm 3 m/S 742 mmHg 82%
21:00 +21°C° 0 mm 3 m/S 742 mmHg 85%
22:00 +21°C° 0 mm 3 m/S 742 mmHg 88%
23:00 +20°C° 0 mm 3 m/S 742 mmHg 92%

8 August, Samstag

Zeit Temperatur Niederschläge Wind Luftdruck Luftfeuchtigkeit
00:00 +20°C° 0 mm 3 m/S 742 mmHg 91%
01:00 +19°C° 0 mm 2 m/S 742 mmHg 90%
02:00 +18°C° 0 mm 2 m/S 742 mmHg 89%
03:00 +18°C° 0 mm 2 m/S 742 mmHg 89%
04:00 +18°C° 0 mm 2 m/S 742 mmHg 90%
05:00 +17°C° 0 mm 2 m/S 742 mmHg 90%
06:00 +18°C° 0 mm 3 m/S 742 mmHg 87%
07:00 +20°C° 0 mm 3 m/S 742 mmHg 83%
08:00 +21°C° 0 mm 3 m/S 742 mmHg 80%
09:00 +22°C° 0 mm 3 m/S 742 mmHg 74%
10:00 +24°C° 0 mm 3 m/S 742 mmHg 69%
11:00 +26°C° 0 mm 3 m/S 742 mmHg 63%
12:00 +26°C° 0 mm 3 m/S 742 mmHg 61%
13:00 +27°C° 0 mm 3 m/S 741 mmHg 59%
14:00 +27°C° 0 mm 3 m/S 741 mmHg 57%
15:00 +27°C° 0 mm 3 m/S 741 mmHg 58%
16:00 +27°C° 0 mm 3 m/S 740 mmHg 60%
17:00 +27°C° 0 mm 3 m/S 740 mmHg 61%
18:00 +25°C° 0 mm 3 m/S 740 mmHg 67%
19:00 +24°C° 0 mm 3 m/S 740 mmHg 73%
20:00 +21°C° 0 mm 3 m/S 740 mmHg 79%
21:00 +20°C° 0 mm 2 m/S 740 mmHg 81%
22:00 +19°C° 0 mm 2 m/S 740 mmHg 83%
23:00 +19°C° 0 mm 2 m/S 740 mmHg 84%

9 August, Sonntag

Zeit Temperatur Niederschläge Wind Luftdruck Luftfeuchtigkeit
00:00 +18°C° 0 mm 2 m/S 740 mmHg 85%
01:00 +18°C° 0 mm 2 m/S 740 mmHg 86%
02:00 +18°C° 0 mm 1 m/S 739 mmHg 87%
03:00 +18°C° 0 mm 1 m/S 739 mmHg 87%
04:00 +18°C° 0 mm 1 m/S 739 mmHg 87%
05:00 +16°C° 0 mm 1 m/S 739 mmHg 88%
06:00 +19°C° 0 mm 1 m/S 739 mmHg 83%
07:00 +20°C° 0 mm 1 m/S 739 mmHg 78%
08:00 +22°C° 0 mm 1 m/S 739 mmHg 73%
09:00 +23°C° 0 mm 1 m/S 739 mmHg 69%
10:00 +24°C° 0 mm 1 m/S 739 mmHg 64%
11:00 +25°C° 0 mm 1 m/S 739 mmHg 59%
12:00 +26°C° 0 mm 1 m/S 739 mmHg 58%
13:00 +27°C° 0 mm 1 m/S 738 mmHg 56%
14:00 +27°C° 0 mm 1 m/S 738 mmHg 55%
15:00 +27°C° 0.2 mm 1 m/S 738 mmHg 56%
16:00 +27°C° 0.2 mm 1 m/S 737 mmHg 57%
17:00 +27°C° 0.2 mm 1 m/S 737 mmHg 58%
18:00 +25°C° 0.2 mm 1 m/S 737 mmHg 64%
19:00 +23°C° 0.2 mm 1 m/S 737 mmHg 69%
20:00 +20°C° 0.2 mm 0 m/S 737 mmHg 75%
21:00 +19°C° 0.1 mm 0 m/S 737 mmHg 77%
22:00 +19°C° 0.1 mm 0 m/S 737 mmHg 79%
23:00 +18°C° 0.1 mm 0 m/S 737 mmHg 82%

10 August, Montag

Zeit Temperatur Niederschläge Wind Luftdruck Luftfeuchtigkeit
00:00 +18°C° 0 mm 0 m/S 737 mmHg 83%
01:00 +17°C° 0 mm 0 m/S 737 mmHg 84%
02:00 +17°C° 0 mm 0 m/S 737 mmHg 85%
03:00 +17°C° 0 mm 0 m/S 737 mmHg 86%
04:00 +16°C° 0 mm 0 m/S 737 mmHg 87%
05:00 +16°C° 0 mm 0 m/S 737 mmHg 87%
06:00 +18°C° 0.1 mm 0 m/S 737 mmHg 84%
07:00 +19°C° 0.1 mm 0 m/S 737 mmHg 80%
08:00 +20°C° 0.1 mm 0 m/S 737 mmHg 76%
09:00 +23°C° 0.8 mm 1 m/S 737 mmHg 72%
10:00 +25°C° 0.8 mm 1 m/S 737 mmHg 69%
11:00 +26°C° 0.8 mm 2 m/S 737 mmHg 65%
12:00 +26°C° 1.5 mm 1 m/S 737 mmHg 63%
13:00 +27°C° 1.5 mm 1 m/S 737 mmHg 61%
14:00 +27°C° 1.5 mm 1 m/S 736 mmHg 58%
15:00 +27°C° 0.4 mm 1 m/S 736 mmHg 59%
16:00 +27°C° 0.4 mm 1 m/S 736 mmHg 61%
17:00 +27°C° 0.4 mm 2 m/S 736 mmHg 62%
18:00 +25°C° 0.3 mm 2 m/S 736 mmHg 68%
19:00 +23°C° 0.3 mm 2 m/S 736 mmHg 74%
20:00 +21°C° 0.3 mm 2 m/S 736 mmHg 80%
21:00 +21°C° 0.2 mm 1 m/S 736 mmHg 82%
22:00 +21°C° 0.2 mm 1 m/S 737 mmHg 84%
23:00 +20°C° 0.2 mm 1 m/S 737 mmHg 86%
Mehr zeigen